KF5WOE-13 Weather Reports


time (UTC)temp
C
wind
direction
speed
KPH
gust
KPH
rain 1hr
cm
rain 24hr
cm
rain mn
cm
humidity
%
barometer
mb
20260510000258 60 101 4.8 8.0 0.00 0.03 0.03 1006.8
20260509235755 60 116 9.7 12.9 0.00 0.03 0.03 1006.6
20260509235252 60 113 0.0 0.0 0.00 0.03 0.03 1007.0
20260509234747 60 127 8.0 9.7 0.00 0.03 0.03 1006.8
20260509234244 60 138 1.6 8.0 0.00 0.03 0.03 1006.9
20260509233743 60 106 0.0 0.0 0.00 0.03 0.03 1006.9
20260509233240 60 84 0.0 0.0 0.00 0.03 0.03 1007.0
20260509232736 60 81 0.0 0.0 0.00 0.03 0.03 1007.0
20260509232233 60 130 0.0 0.0 0.00 0.03 0.03 1007.0
20260509231730 60 107 0.0 0.0 0.00 0.03 0.03 1007.0
20260509231227 60 254 0.0 0.0 0.00 0.03 0.03 1007.2
20260509230724 60 148 0.0 0.0 0.00 0.03 0.03 1007.1
20260509230221 60 139 0.0 0.0 0.00 0.03 0.03 1007.1
20260509225716 60 170 0.0 0.0 0.00 0.03 0.03 1007.2
20260509225212 60 165 0.0 0.0 0.00 0.03 0.03 1007.3
20260509224708 60 171 0.0 0.0 0.00 0.03 0.03 1007.2
20260509224205 60 343 0.0 0.0 0.00 0.03 0.03 1007.1
20260509223702 60 38 0.0 0.0 0.00 0.03 0.03 1007.0
20260509223159 60 82 0.0 0.0 0.00 0.03 0.03 1007.2
20260509222656 60 173 0.0 0.0 0.00 0.03 0.03 1007.4
20260509222152 60 47 0.0 0.0 0.00 0.03 0.03 1007.1
20260509221648 60 123 0.0 0.0 0.00 0.03 0.03 1007.2
20260509221143 60 124 4.8 8.0 0.00 0.03 0.03 1007.4
20260509220640 60 123 0.0 0.0 0.00 0.03 0.03 1007.6
20260509220136 60 227 0.0 0.0 0.00 0.03 0.03 1007.6
20260509215632 60 193 0.0 0.0 0.00 0.03 0.03 1007.2
20260509215129 60 225 0.0 0.0 0.00 0.03 0.03 1007.6
20260509214626 60 138 4.8 4.8 0.00 0.03 0.03 1007.8
20260509214123 60 220 0.0 0.0 0.00 0.03 0.03 1007.7
20260509213619 60 183 8.0 11.3 0.00 0.03 0.03 1007.7
20260509213115 60 148 1.6 3.2 0.00 0.03 0.03 1007.6
20260509212613 60 181 4.8 8.0 0.00 0.03 0.03 1007.8
20260509212110 60 50 0.0 3.2 0.00 0.03 0.03 1007.8
20260509211606 60 90 6.4 8.0 0.00 0.03 0.03 1007.8
20260509211103 60 228 0.0 0.0 0.00 0.03 0.03 1007.7
20260509210559 60 72 9.7 12.9 0.00 0.03 0.03 1007.8
20260509210056 60 0 0.0 0.0 0.00 0.03 0.03 1008.0
20260509205550 60 332 0.0 0.0 0.00 0.03 0.03 1008.4
20260509205045 60 84 3.2 4.8 0.00 0.03 0.03 1008.3
20260509204541 60 47 0.0 0.0 0.00 0.03 0.03 1008.4
20260509204038 60 122 0.0 0.0 0.00 0.03 0.03 1008.5
20260509203533 60 346 8.0 9.7 0.00 0.03 0.03 1008.6
20260509203032 60 22 0.0 0.0 0.00 0.03 0.03 1008.6
20260509202527 60 8 0.0 0.0 0.00 0.03 0.03 1008.5
20260509202023 60 328 0.0 0.0 0.00 0.03 0.03 1008.9
20260509201518 60 263 0.0 0.0 0.00 0.03 0.03 1008.6
20260509201016 60 312 0.0 0.0 0.00 0.03 0.03 1008.4
20260509200510 60 288 8.0 11.3 0.00 0.03 0.03 1008.9
20260509200007 60 0 3.2 4.8 0.00 0.03 0.03 1008.8
20260509195502 60 131 0.0 0.0 0.00 0.03 0.03 1009.0
20260509195001 60 267 0.0 0.0 0.00 0.03 0.03 1008.8
20260509194457 60 340 11.3 12.9 0.00 0.03 0.03 1009.1
20260509193955 60 295 0.0 0.0 0.00 0.03 0.03 1009.0
20260509193454 60 217 0.0 0.0 0.00 0.03 0.03 1009.2
20260509192951 60 34 1.6 4.8 0.00 0.03 0.03 1009.1
20260509192448 60 57 4.8 8.0 0.00 0.03 0.03 1009.4
20260509191943 60 58 0.0 0.0 0.00 0.03 0.03 1009.2
20260509191438 60 205 0.0 0.0 0.00 0.03 0.03 1009.5
20260509190934 60 290 0.0 0.0 0.00 0.03 0.03 1009.4
20260509190431 60 268 0.0 0.0 0.00 0.03 0.03 1009.5
20260509185929 60 325 0.0 0.0 0.00 0.03 0.03 1009.5
20260509185426 60 317 0.0 0.0 0.00 0.03 0.03 1009.7
20260509184923 60 286 0.0 0.0 0.00 0.03 0.03 1009.7
20260509184421 60 248 0.0 0.0 0.00 0.03 0.03 1009.8
20260509183917 60 351 9.7 12.9 0.00 0.03 0.03 1009.6
20260509183411 60 305 0.0 0.0 0.00 0.03 0.03 1009.7
20260509182908 60 310 0.0 0.0 0.00 0.03 0.03 1010.0
20260509182405 60 74 0.0 0.0 0.00 0.03 0.03 1010.0
20260509181902 60 12 0.0 0.0 0.00 0.03 0.03 1010.1
20260509181400 60 349 0.0 1.6 0.00 0.03 0.03 1010.1
20260509180857 60 299 0.0 0.0 0.00 0.03 0.03 1010.3
20260509180352 60 342 6.4 9.7 0.00 0.03 0.03 1010.3
20260509175849 60 250 4.8 4.8 0.00 0.03 0.03 1010.2
20260509175345 60 219 0.0 0.0 0.00 0.03 0.03 1010.5
20260509174841 60 331 4.8 8.0 0.00 0.03 0.03 1010.4
20260509174338 60 231 4.8 4.8 0.00 0.03 0.03 1010.3
20260509173834 60 270 8.0 8.0 0.00 0.03 0.03 1010.3
20260509173329 60 250 8.0 11.3 0.00 0.03 0.03 1010.5
20260509172825 60 324 8.0 12.9 0.00 0.03 0.03 1010.5
20260509172322 60 254 0.0 0.0 0.00 0.03 0.03 1010.5
20260509171818 60 286 1.6 4.8 0.00 0.03 0.03 1010.4
20260509171314 60 269 1.6 3.2 0.00 0.03 0.03 1010.5
20260509170811 60 309 0.0 0.0 0.00 0.03 0.03 1010.7
20260509170307 60 327 0.0 0.0 0.00 0.03 0.03 1011.0
20260509165806 60 273 8.0 9.7 0.00 0.03 0.03 1010.7
20260509165301 60 265 0.0 0.0 0.00 0.03 0.03 1010.8
20260509164757 60 257 9.7 11.3 0.00 0.03 0.03 1011.1
20260509164254 60 280 11.3 16.1 0.00 0.03 0.03 1011.1
20260509163750 60 290 0.0 3.2 0.00 0.03 0.03 1011.2
20260509163247 60 301 0.0 1.6 0.00 0.03 0.03 1011.3
20260509162745 60 209 0.0 0.0 0.00 0.03 0.03 1011.2
20260509162239 60 304 3.2 3.2 0.00 0.03 0.03 1011.2
20260509161736 60 295 1.6 4.8 0.00 0.03 0.03 1011.1
20260509161232 60 242 8.0 11.3 0.00 0.03 0.03 1011.0
20260509160727 60 283 1.6 3.2 0.00 0.03 0.03 1011.2
20260509160224 60 299 11.3 12.9 0.00 0.03 0.03 1011.4
20260509155718 60 216 4.8 4.8 0.00 0.03 0.03 1011.4
20260509155216 60 247 6.4 8.0 0.00 0.03 0.03 1011.3
20260509154711 60 303 4.8 8.0 0.00 0.03 0.03 1011.1
20260509154209 60 288 3.2 8.0 0.00 0.03 0.03 1011.1
20260509153706 60 265 8.0 11.3 0.00 0.03 0.03 1011.2
20260509153202 60 358 0.0 1.6 0.00 0.03 0.03 1011.2
20260509152658 60 302 3.2 4.8 0.00 0.03 0.03 1011.3
20260509152155 60 341 9.7 11.3 0.00 0.03 0.03 1011.2
20260509151652 60 353 0.0 1.6 0.00 0.03 0.03 1011.3
20260509151149 60 288 1.6 3.2 0.00 0.03 0.03 1011.3
20260509150647 60 14 6.4 9.7 0.00 0.03 0.03 1011.1
20260509150145 60 335 8.0 9.7 0.00 0.03 0.03 1011.3
20260509145641 60 307 0.0 0.0 0.00 0.03 0.03 1011.4
20260509145136 60 286 1.6 3.2 0.00 0.03 0.03 1011.3
20260509144633 60 283 6.4 12.9 0.00 0.03 0.03 1011.4
20260509144130 60 332 3.2 9.7 0.00 0.03 0.03 1011.5
20260509143627 60 13 9.7 12.9 0.00 0.03 0.03 1011.4
20260509143125 60 359 8.0 11.3 0.00 0.03 0.03 1011.5
20260509142620 60 327 9.7 11.3 0.00 0.03 0.03 1011.5
20260509142117 60 315 4.8 8.0 0.00 0.03 0.03 1011.6
20260509141613 60 309 6.4 9.7 0.00 0.03 0.03 1011.7
20260509141109 60 296 4.8 8.0 0.00 0.03 0.03 1011.6
20260509140606 60 344 6.4 9.7 0.00 0.03 0.03 1011.9
20260509140104 60 345 6.4 8.0 0.00 0.03 0.03 1011.6
20260509135601 60 325 4.8 11.3 0.00 0.03 0.03 1011.8
20260509135059 60 325 4.8 9.7 0.00 0.03 0.03 1011.6
20260509134555 60 305 4.8 8.0 0.00 0.03 0.03 1011.5
20260509134053 60 315 6.4 11.3 0.00 0.03 0.03 1011.7
20260509133550 60 299 4.8 8.0 0.00 0.03 0.03 1011.6
20260509133047 60 16 12.9 14.5 0.00 0.03 0.03 1011.6
20260509132546 60 7 14.5 16.1 0.00 0.03 0.03 1011.6
20260509132044 60 13 20.9 25.7 0.00 0.03 0.03 1011.7
20260509131539 60 358 17.7 17.7 0.00 0.03 0.03 1011.4
20260509131037 60 1 11.3 12.9 0.00 0.03 0.03 1011.3
20260509130532 60 23 11.3 12.9 0.00 0.03 0.03 1011.5
20260509130029 60 16 11.3 17.7 0.00 0.03 0.03 1011.4
20260509125525 60 32 6.4 9.7 0.00 0.03 0.03 1011.5
20260509125022 60 14 4.8 8.0 0.00 0.03 0.03 1011.6
20260509124519 60 10 8.0 9.7 0.00 0.03 0.03 1011.7
20260509124016 60 333 0.0 0.0 0.00 0.03 0.03 1011.5
20260509123514 60 322 1.6 3.2 0.00 0.03 0.03 1011.4
20260509123010 60 11 8.0 9.7 0.00 0.03 0.03 1011.5
20260509122506 60 356 0.0 0.0 0.00 0.03 0.03 1011.5
20260509122003 60 271 0.0 0.0 0.00 0.03 0.03 1011.5
20260509121500 60 278 0.0 0.0 0.00 0.03 0.03 1011.5
20260509120958 60 340 0.0 0.0 0.00 0.03 0.03 1011.4
20260509120455 60 207 0.0 0.0 0.00 0.03 0.03 1011.3
20260509115954 60 260 0.0 0.0 0.00 0.03 0.03 1011.2
20260509115451 60 190 0.0 0.0 0.00 0.03 0.03 1011.4
20260509114948 60 233 0.0 0.0 0.00 0.03 0.03 1010.8
20260509114446 60 160 0.0 0.0 0.00 0.03 0.03 1011.0
20260509113945 60 244 0.0 0.0 0.00 0.03 0.03 1011.0
20260509113442 60 276 4.8 4.8 0.00 0.03 0.03 1010.7
20260509112939 60 326 4.8 4.8 0.00 0.03 0.03 1010.4
20260509112437 60 328 9.7 16.1 0.00 0.03 0.03 1010.3
20260509111933 60 337 11.3 12.9 0.00 0.03 0.03 1010.1
20260509111431 60 300 8.0 12.9 0.00 0.03 0.03 1010.1
20260509110928 60 329 6.4 8.0 0.00 0.03 0.03 1010.1
20260509110423 60 328 14.5 17.7 0.00 0.03 0.03 1010.1
20260509105922 60 316 9.7 11.3 0.00 0.03 0.03 1009.7
20260509105420 60 343 8.0 9.7 0.00 0.03 0.03 1009.8
20260509104917 60 328 4.8 4.8 0.00 0.03 0.03 1009.5
20260509104414 60 325 8.0 9.7 0.00 0.03 0.03 1009.7
20260509103911 60 356 8.0 9.7 0.00 0.03 0.03 1009.7
20260509103408 60 342 8.0 9.7 0.00 0.03 0.03 1009.8
20260509102907 60 19 11.3 14.5 0.00 0.03 0.03 1009.6
20260509102403 60 329 6.4 9.7 0.00 0.03 0.03 1009.6
20260509101853 60 0 6.4 8.0 0.00 0.03 0.03 1009.8
20260509101350 60 26 4.8 8.0 0.00 0.03 0.03 1009.8
20260509100848 60 23 1.6 1.6 0.00 0.03 0.03 1009.9
20260509100344 60 43 6.4 8.0 0.00 0.03 0.03 1009.9
20260509095841 60 328 0.0 0.0 0.00 0.03 0.03 1009.9
20260509095338 60 325 0.0 0.0 0.00 0.03 0.03 1009.9
20260509094836 60 354 6.4 8.0 0.00 0.03 0.03 1009.8
20260509094332 60 322 6.4 8.0 0.00 0.03 0.03 1009.9
20260509093830 60 358 6.4 8.0 0.00 0.03 0.03 1010.0
20260509093327 60 357 14.5 16.1 0.00 0.03 0.03 1009.9
20260509092825 60 345 6.4 8.0 0.00 0.03 0.03 1009.5
20260509092323 60 324 14.5 16.1 0.00 0.03 0.03 1009.5
20260509091821 60 279 16.1 20.9 0.00 0.03 0.03 1008.9
20260509091317 60 310 20.9 29.0 0.00 0.03 0.03 1009.0
20260509090815 60 232 6.4 8.0 0.00 0.03 0.03 1008.0
20260509090312 60 228 4.8 4.8 0.00 0.03 0.03 1007.4
20260509085809 60 132 4.8 8.0 0.00 0.03 0.03 1006.7
20260509085307 60 167 4.8 4.8 0.00 0.03 0.03 1006.2
20260509084803 60 130 16.1 20.9 0.00 0.03 0.03 1005.8
20260509084300 60 138 14.5 17.7 0.00 0.03 0.03 1006.2
20260509083757 60 117 8.0 11.3 0.00 0.03 0.03 1006.7
20260509083254 60 131 8.0 11.3 0.00 0.03 0.03 1007.4
20260509082750 60 125 6.4 8.0 0.00 0.03 0.03 1008.1
20260509082247 60 164 0.0 0.0 0.00 0.03 0.03 1008.5
20260509081744 60 131 0.0 0.0 0.00 0.03 0.03 1008.6
20260509081242 60 183 3.2 3.2 0.00 0.03 0.03 1008.8
20260509080740 60 276 9.7 11.3 0.00 0.03 0.03 1009.0
20260509080237 60 242 11.3 14.5 0.00 0.03 0.03 1009.2
20260509075735 60 227 16.1 17.7 0.00 0.03 0.03 1009.6
20260509075232 60 229 16.1 17.7 0.00 0.03 0.03 1009.3
20260509074729 60 245 20.9 25.7 0.00 0.03 0.03 1009.6
20260509074227 60 226 0.0 0.0 0.00 0.03 0.03 1008.8
20260509073723 60 310 0.0 0.0 0.00 0.03 0.03 1009.0
20260509073219 60 340 0.0 0.0 0.00 0.03 0.03 1009.0
20260509072716 60 352 0.0 0.0 0.00 0.03 0.03 1009.2
20260509072213 60 326 6.4 9.7 0.00 0.03 0.03 1009.3
20260509071709 60 12 9.7 11.3 0.00 0.03 0.03 1009.9
20260509071207 60 22 9.7 11.3 0.00 0.03 0.03 1010.1
20260509070703 60 14 8.0 11.3 0.00 0.03 0.03 1010.2
20260509070159 60 38 6.4 9.7 0.00 0.03 0.03 1010.8
20260509065650 60 358 9.7 11.3 0.00 0.03 0.03 1011.5
20260509065147 60 358 11.3 14.5 0.00 0.03 0.03 1011.7
20260509064643 60 347 24.1 29.0 0.00 0.03 0.03 1012.2
20260509064141 60 8 19.3 24.1 0.00 0.03 0.03 1012.3
20260509063638 60 19 32.2 41.8 0.18 0.03 0.03 1012.8
20260509063134 60 6 38.6 46.7 0.18 0.03 0.03 1012.6
20260509062632 60 22 45.1 59.5 0.00 0.00 0.00 1013.1
20260509062129 60 218 27.4 29.0 0.00 0.00 0.00 1012.7
20260509061625 60 343 22.5 35.4 0.00 0.00 0.00 1012.9
20260509061123 60 11 16.1 22.5 0.00 0.00 0.00 1013.1
20260509060621 60 317 1.6 4.8 0.00 0.00 0.00 1012.6
20260509060116 60 314 4.8 9.7 0.00 0.00 0.00 1012.4
20260509055612 60 342 11.3 12.9 0.00 0.00 0.00 1012.5
20260509055108 60 358 0.0 1.6 0.00 0.00 0.00 1012.3
20260509054605 60 7 8.0 16.1 0.00 0.00 0.00 1012.4
20260509054103 60 350 0.0 0.0 0.00 0.00 0.00 1011.8
20260509053601 60 1 6.4 12.9 0.00 0.00 0.00 1012.0
20260509053058 60 337 0.0 0.0 0.00 0.00 0.00 1011.5
20260509052555 60 18 0.0 0.0 0.00 0.00 0.00 1011.6
20260509052053 60 338 6.4 11.3 0.00 0.00 0.00 1011.4
20260509051551 60 9 0.0 0.0 0.00 0.00 0.00 1010.7
20260509051047 60 108 0.0 0.0 0.00 0.00 0.00 1010.6
20260509050544 60 156 0.0 0.0 0.00 0.00 0.00 1010.4
20260509050041 60 113 0.0 0.0 0.00 0.00 0.00 1010.7
20260509045538 60 59 0.0 0.0 0.00 0.00 0.00 1010.7
20260509045035 60 59 0.0 0.0 0.00 0.00 0.00 1010.7
20260509044533 60 50 0.0 0.0 0.00 0.00 0.00 1010.5
20260509044030 60 66 0.0 0.0 0.00 0.00 0.00 1010.2
20260509043526 60 104 0.0 0.0 0.00 0.00 0.00 1010.3
20260509043022 60 72 0.0 0.0 0.00 0.00 0.00 1010.4
20260509042518 60 33 0.0 0.0 0.00 0.00 0.00 1010.1
20260509042015 60 58 0.0 1.6 0.00 0.00 0.00 1010.0
20260509041512 60 82 0.0 0.0 0.00 0.00 0.00 1009.8
20260509041009 60 107 0.0 0.0 0.00 0.00 0.00 1009.9
20260509040507 60 121 0.0 0.0 0.00 0.00 0.00 1009.7
20260509040004 60 165 0.0 0.0 0.00 0.08 0.08 1009.7
20260509035501 60 178 0.0 0.0 0.00 0.08 0.08 1009.4
20260509034957 60 166 0.0 0.0 0.00 0.08 0.08 1009.7
20260509034455 60 115 0.0 0.0 0.00 0.08 0.08 1009.7
20260509033952 60 121 0.0 0.0 0.00 0.08 0.08 1009.5
20260509033449 60 132 0.0 0.0 0.00 0.08 0.08 1009.4
20260509032945 60 154 0.0 0.0 0.00 0.08 0.08 1009.3
20260509032443 60 121 0.0 0.0 0.00 0.08 0.08 1009.1
20260509031941 60 141 0.0 0.0 0.00 0.08 0.08 1008.9
20260509031438 60 164 0.0 0.0 0.00 0.08 0.08 1008.7
20260509030935 60 166 0.0 0.0 0.00 0.08 0.08 1008.8
20260509030433 60 138 0.0 1.6 0.00 0.08 0.08 1008.8
20260509025930 60 158 3.2 9.7 0.00 0.08 0.08 1008.9
20260509025425 60 164 4.8 8.0 0.00 0.08 0.08 1008.5
20260509024920 60 179 6.4 11.3 0.00 0.08 0.08 1008.4
20260509024417 60 181 1.6 4.8 0.00 0.08 0.08 1008.3
20260509023914 60 160 0.0 0.0 0.00 0.08 0.08 1008.4
20260509023412 60 166 0.0 0.0 0.00 0.08 0.08 1008.5
20260509022908 60 156 0.0 0.0 0.00 0.08 0.08 1008.3
20260509022405 60 138 0.0 0.0 0.00 0.08 0.08 1008.5
20260509021903 60 149 0.0 0.0 0.00 0.08 0.08 1008.3
20260509021400 60 149 0.0 0.0 0.00 0.08 0.08 1008.3
20260509020857 60 139 0.0 0.0 0.00 0.08 0.08 1008.4
20260509020355 60 110 0.0 0.0 0.00 0.08 0.08 1008.3
20260509015852 60 129 0.0 0.0 0.00 0.08 0.08 1008.2
20260509015350 60 119 0.0 0.0 0.00 0.08 0.08 1008.2
20260509014846 60 125 0.0 0.0 0.00 0.08 0.08 1008.3
20260509014344 60 155 0.0 0.0 0.00 0.08 0.08 1008.1
20260509013840 60 101 0.0 0.0 0.00 0.08 0.08 1008.0
20260509013337 60 120 0.0 0.0 0.00 0.08 0.08 1008.2
20260509012832 60 128 0.0 0.0 0.00 0.08 0.08 1008.1
20260509012329 60 133 0.0 0.0 0.00 0.08 0.08 1008.1
20260509011827 60 122 0.0 0.0 0.00 0.08 0.08 1008.3
20260509011324 60 125 0.0 0.0 0.00 0.08 0.08 1008.1
20260509010821 60 106 0.0 0.0 0.00 0.08 0.08 1008.1
20260509010318 60 97 8.0 9.7 0.00 0.08 0.08 1008.1
20260509005816 60 93 0.0 0.0 0.00 0.08 0.08 1008.0
20260509005314 60 101 0.0 0.0 0.00 0.08 0.08 1008.1
20260509004813 60 107 0.0 0.0 0.00 0.08 0.08 1007.8
20260509004305 60 122 0.0 0.0 0.00 0.08 0.08 1008.0
20260509003803 60 122 0.0 0.0 0.00 0.08 0.08 1007.8
20260509003300 60 130 1.6 11.3 0.00 0.08 0.08 1007.7
20260509002757 60 132 0.0 0.0 0.00 0.08 0.08 1007.8
20260509002254 60 117 0.0 0.0 0.00 0.08 0.08 1007.6
20260509001752 60 114 3.2 11.3 0.00 0.08 0.08 1007.9
20260509001248 60 147 0.0 0.0 0.00 0.08 0.08 1007.9